Sterlitamak, Russia
Current Conditions -  °F | °C
As of 4:00 AM on Thursday 23 Oct 2014 (Local Time) from UWUU Reporting Station
Light Snow Light Snow  
Wind Chill: 11°   Ceiling: 2100
Heat Index: 25°   Visibility: 6mi
Dew Point: 16°   Wind: 18mph
Humidity: 69%   Direction: 280°W
Pressure: 29.62"   Gusts: NA
Location:  53.63°N, 55.95°E
Report Text: UWUU 222300Z 28008MPS 9999 -SN OVC021 M04/M09 Q1003 320///60NOSIG RMK QFE740/0987 MOD ICE INC
Loading
Personal Weather Stations






























Interactive Weather Map
Tropical Storm Tracking
New forecast layout! Learn more

10-Day Weather Forecast

Advertisements
Track Severe Weather on mobile